When you browse on this site, cookies collect data to enhance your experience and personalize the content and advertising you see.
Visit our Privacy Policy to learn more. By continuing to use the site, you agree to this use of cookies and data.
  • în România
  • Lista ţărilor
  • Pe 7 zile
  • Temperatura apei
  • Meteo pe hartă
  • Widget-uri
  • user-avatar
    Intrare

    Meteo pe oră la Hajfa

    Astăzi, 30 Martie, Luni

    Timp Temperatura Precipitaţii Vânt Presiune Umiditate
    00:00 +14°C° 0 mm 4 m/s 756 mmHg 82%
    01:00 +14°C° 0 mm 3 m/s 756 mmHg 81%
    02:00 +16°C° 0 mm 3 m/s 756 mmHg 76%
    03:00 +14°C° 0 mm 3 m/s 756 mmHg 76%
    04:00 +14°C° 0 mm 3 m/s 756 mmHg 76%
    05:00 +13°C° 0 mm 3 m/s 756 mmHg 76%
    06:00 +16°C° 0 mm 3 m/s 756 mmHg 73%
    07:00 +17°C° 0 mm 3 m/s 756 mmHg 70%
    08:00 +18°C° 0 mm 4 m/s 757 mmHg 67%
    09:00 +19°C° 0 mm 3 m/s 757 mmHg 61%
    10:00 +21°C° 0 mm 3 m/s 757 mmHg 55%
    11:00 +22°C° 0 mm 3 m/s 757 mmHg 49%
    12:00 +23°C° 0 mm 2 m/s 756 mmHg 46%
    13:00 +24°C° 0 mm 2 m/s 756 mmHg 43%
    14:00 +24°C° 0 mm 1 m/s 755 mmHg 40%
    15:00 +23°C° 0 mm 1 m/s 755 mmHg 46%
    16:00 +23°C° 0 mm 1 m/s 755 mmHg 51%
    17:00 +22°C° 0 mm 1 m/s 755 mmHg 56%
    18:00 +20°C° 0 mm 2 m/s 755 mmHg 54%
    19:00 +19°C° 0 mm 2 m/s 755 mmHg 51%
    20:00 +19°C° 0 mm 3 m/s 755 mmHg 49%
    21:00 +18°C° 0 mm 3 m/s 755 mmHg 50%
    22:00 +18°C° 0 mm 4 m/s 754 mmHg 51%
    23:00 +17°C° 0 mm 4 m/s 754 mmHg 52%

    Mâine, 31 Martie, Marţi

    Timp Temperatura Precipitaţii Vânt Presiune Umiditate
    00:00 +17°C° 0 mm 5 m/s 754 mmHg 52%
    01:00 +17°C° 0 mm 5 m/s 753 mmHg 51%
    02:00 +17°C° 0 mm 5 m/s 753 mmHg 51%
    03:00 +17°C° 0 mm 6 m/s 753 mmHg 50%
    04:00 +17°C° 0 mm 6 m/s 753 mmHg 49%
    05:00 +17°C° 0 mm 6 m/s 753 mmHg 48%
    06:00 +17°C° 0 mm 8 m/s 753 mmHg 50%
    07:00 +17°C° 0 mm 9 m/s 753 mmHg 52%
    08:00 +18°C° 0 mm 10 m/s 752 mmHg 54%
    09:00 +19°C° 0 mm 10 m/s 752 mmHg 52%
    10:00 +22°C° 0 mm 10 m/s 752 mmHg 50%
    11:00 +24°C° 0 mm 10 m/s 752 mmHg 48%
    12:00 +26°C° 0 mm 8 m/s 751 mmHg 44%
    13:00 +27°C° 0 mm 7 m/s 750 mmHg 41%
    14:00 +28°C° 0 mm 6 m/s 750 mmHg 37%
    15:00 +26°C° 0 mm 6 m/s 750 mmHg 47%
    16:00 +23°C° 0 mm 6 m/s 750 mmHg 56%
    17:00 +21°C° 0 mm 6 m/s 750 mmHg 66%
    18:00 +19°C° 0 mm 5 m/s 750 mmHg 71%
    19:00 +18°C° 0 mm 4 m/s 751 mmHg 76%
    20:00 +17°C° 0 mm 4 m/s 751 mmHg 82%
    21:00 +17°C° 0 mm 4 m/s 752 mmHg 82%
    22:00 +16°C° 0 mm 5 m/s 752 mmHg 83%
    23:00 +16°C° 0 mm 6 m/s 752 mmHg 83%

    Poimâine, 1 Aprilie, Miercuri

    Timp Temperatura Precipitaţii Vânt Presiune Umiditate
    00:00 +16°C° 0.1 mm 6 m/s 752 mmHg 86%
    01:00 +16°C° 0.1 mm 7 m/s 752 mmHg 88%
    02:00 +16°C° 0.1 mm 7 m/s 752 mmHg 90%
    03:00 +15°C° 0.4 mm 7 m/s 752 mmHg 90%
    04:00 +15°C° 0.4 mm 7 m/s 753 mmHg 90%
    05:00 +15°C° 0.4 mm 6 m/s 753 mmHg 89%
    06:00 +16°C° 0.4 mm 6 m/s 753 mmHg 87%
    07:00 +16°C° 0.4 mm 6 m/s 754 mmHg 85%
    08:00 +17°C° 0.4 mm 6 m/s 754 mmHg 82%
    09:00 +17°C° 0.3 mm 6 m/s 754 mmHg 81%
    10:00 +18°C° 0.3 mm 7 m/s 755 mmHg 79%
    11:00 +18°C° 0.3 mm 7 m/s 755 mmHg 78%
    12:00 +18°C° 0.1 mm 7 m/s 755 mmHg 77%
    13:00 +18°C° 0.1 mm 7 m/s 755 mmHg 77%
    14:00 +18°C° 0.1 mm 7 m/s 755 mmHg 76%
    15:00 +19°C° 0.1 mm 6 m/s 755 mmHg 78%
    16:00 +17°C° 0.1 mm 5 m/s 755 mmHg 80%
    17:00 +17°C° 0.1 mm 5 m/s 755 mmHg 83%
    18:00 +17°C° 0.1 mm 4 m/s 756 mmHg 85%
    19:00 +15°C° 0.1 mm 4 m/s 756 mmHg 88%
    20:00 +16°C° 0.1 mm 3 m/s 756 mmHg 91%
    21:00 +16°C° 0 mm 3 m/s 756 mmHg 91%
    22:00 +15°C° 0 mm 2 m/s 756 mmHg 90%
    23:00 +15°C° 0 mm 2 m/s 756 mmHg 90%

    2 Aprilie, Joi

    Timp Temperatura Precipitaţii Vânt Presiune Umiditate
    00:00 +15°C° 0 mm 2 m/s 756 mmHg 90%
    01:00 +15°C° 0 mm 2 m/s 756 mmHg 90%
    02:00 +15°C° 0 mm 2 m/s 756 mmHg 90%
    03:00 +14°C° 0.1 mm 2 m/s 756 mmHg 90%
    04:00 +14°C° 0.1 mm 2 m/s 756 mmHg 89%
    05:00 +14°C° 0.1 mm 2 m/s 756 mmHg 89%
    06:00 +15°C° 0 mm 2 m/s 757 mmHg 85%
    07:00 +16°C° 0 mm 2 m/s 757 mmHg 80%
    08:00 +17°C° 0 mm 2 m/s 757 mmHg 76%
    09:00 +18°C° 0 mm 3 m/s 757 mmHg 72%
    10:00 +19°C° 0 mm 3 m/s 757 mmHg 67%
    11:00 +20°C° 0 mm 4 m/s 757 mmHg 63%
    12:00 +20°C° 0 mm 4 m/s 757 mmHg 63%
    13:00 +20°C° 0 mm 4 m/s 757 mmHg 62%
    14:00 +20°C° 0 mm 4 m/s 756 mmHg 62%
    15:00 +19°C° 0 mm 4 m/s 756 mmHg 65%
    16:00 +18°C° 0 mm 4 m/s 756 mmHg 68%
    17:00 +17°C° 0 mm 3 m/s 756 mmHg 72%
    18:00 +17°C° 0 mm 3 m/s 756 mmHg 76%
    19:00 +16°C° 0 mm 2 m/s 757 mmHg 79%
    20:00 +15°C° 0 mm 1 m/s 757 mmHg 83%
    21:00 +14°C° 0 mm 2 m/s 757 mmHg 84%
    22:00 +14°C° 0 mm 2 m/s 757 mmHg 85%
    23:00 +14°C° 0 mm 2 m/s 757 mmHg 86%

    3 Aprilie, Vineri

    Timp Temperatura Precipitaţii Vânt Presiune Umiditate
    00:00 +14°C° 0 mm 2 m/s 757 mmHg 86%
    01:00 +13°C° 0 mm 3 m/s 757 mmHg 86%
    02:00 +14°C° 0 mm 3 m/s 757 mmHg 87%
    03:00 +14°C° 0.1 mm 3 m/s 757 mmHg 87%
    04:00 +14°C° 0.1 mm 3 m/s 757 mmHg 88%
    05:00 +14°C° 0.1 mm 4 m/s 757 mmHg 88%
    06:00 +14°C° 0.3 mm 4 m/s 757 mmHg 85%
    07:00 +15°C° 0.3 mm 5 m/s 757 mmHg 83%
    08:00 +16°C° 0.3 mm 6 m/s 757 mmHg 80%
    09:00 +17°C° 0.3 mm 6 m/s 758 mmHg 79%
    10:00 +17°C° 0.3 mm 6 m/s 758 mmHg 78%
    11:00 +19°C° 0.3 mm 5 m/s 758 mmHg 76%
    12:00 +17°C° 0 mm 5 m/s 758 mmHg 74%
    13:00 +17°C° 0 mm 5 m/s 758 mmHg 71%
    14:00 +17°C° 0 mm 5 m/s 758 mmHg 69%
    15:00 +17°C° 0 mm 5 m/s 758 mmHg 69%
    16:00 +17°C° 0 mm 4 m/s 758 mmHg 69%
    17:00 +17°C° 0 mm 3 m/s 758 mmHg 69%
    18:00 +16°C° 0 mm 3 m/s 758 mmHg 71%
    19:00 +15°C° 0 mm 2 m/s 758 mmHg 74%
    20:00 +14°C° 0 mm 1 m/s 759 mmHg 76%
    21:00 +13°C° 0 mm 1 m/s 759 mmHg 77%
    22:00 +13°C° 0 mm 1 m/s 759 mmHg 78%
    23:00 +13°C° 0 mm 1 m/s 759 mmHg 79%

    4 Aprilie, Sâmbătă

    Timp Temperatura Precipitaţii Vânt Presiune Umiditate
    00:00 +13°C° 0 mm 1 m/s 759 mmHg 79%
    01:00 +13°C° 0 mm 1 m/s 759 mmHg 80%
    02:00 +12°C° 0 mm 2 m/s 759 mmHg 80%
    03:00 +12°C° 0 mm 2 m/s 759 mmHg 81%
    04:00 +12°C° 0 mm 2 m/s 759 mmHg 81%
    05:00 +11°C° 0 mm 3 m/s 759 mmHg 81%
    06:00 +13°C° 0 mm 3 m/s 759 mmHg 75%
    07:00 +14°C° 0 mm 3 m/s 759 mmHg 68%
    08:00 +17°C° 0 mm 3 m/s 759 mmHg 62%
    09:00 +19°C° 0 mm 3 m/s 759 mmHg 57%
    10:00 +20°C° 0 mm 2 m/s 759 mmHg 52%
    11:00 +23°C° 0 mm 1 m/s 759 mmHg 48%
    12:00 +23°C° 0 mm 2 m/s 758 mmHg 48%
    13:00 +24°C° 0 mm 3 m/s 758 mmHg 48%
    14:00 +23°C° 0 mm 4 m/s 758 mmHg 48%
    15:00 +23°C° 0 mm 5 m/s 757 mmHg 55%
    16:00 +22°C° 0 mm 5 m/s 757 mmHg 61%
    17:00 +21°C° 0 mm 6 m/s 757 mmHg 68%
    18:00 +20°C° 0 mm 5 m/s 757 mmHg 68%
    19:00 +19°C° 0 mm 5 m/s 757 mmHg 67%
    20:00 +19°C° 0 mm 5 m/s 757 mmHg 67%
    21:00 +17°C° 0 mm 5 m/s 757 mmHg 63%
    22:00 +18°C° 0 mm 4 m/s 757 mmHg 60%
    23:00 +18°C° 0 mm 4 m/s 757 mmHg 57%
    Arată mai mult